User: anonymous   Login
Location: Unspecified
(0.0000°N, 0.0000°E)
Time: 14:57:32
(UTC+00:00)
Language:

RS-13 - Orbit

View from above orbital plane
View from above orbital plane
View from above satellite
View from above satellite

Ground track
Ground track

The orbit data is extracted from the following two-line orbital elements,

1 21089U 91007A   22223.71594285  .00000061  00000-0  48200-4 0  9994
2 21089  82.9240 300.9376 0027837 264.0054 207.4066 13.74703341581117
Epoch (UTC): 11 August 2022 17:10:57
Eccentricity: 0.0027837
inclination: 82.9240°
perigee height: 962 km
apogee height: 1003 km
right ascension of ascending node: 300.9376°
argument of perigee: 264.0054°
revolutions per day: 13.74703341
mean anomaly at epoch: 207.4066°
orbit number at epoch: 58111

The dashed part of the orbit path shows where the satellite is in the earth's shadow,  

DLR